This is the latest recevied weather packets stored in our database for station/object KB1FFS. If no packets are shown the sender has not sent any weather packets the latest 10 day(s).
| Time | Temp. | Humidity | Pressure | Rain* | Wind** | Luminosity | Snow |
|---|---|---|---|---|---|---|---|
| 1777684014 | 17.78° C | 64% | 1018.1 hPa | 0 mm | - | 3 W/m² | - |
| 1777683709 | 17.78° C | 65% | 1018.1 hPa | 0 mm | - | 6 W/m² | - |
| 1777683407 | 17.78° C | 65% | 1017.8 hPa | 0 mm | - | 8 W/m² | - |
| 1777683105 | 17.78° C | 64% | 1017.7 hPa | 0 mm | - | 12 W/m² | - |
| 1777682800 | 17.78° C | 63% | 1017.4 hPa | 0 mm | - | 14 W/m² | - |
| 1777682497 | 17.78° C | 62% | 1017.7 hPa | 0 mm | - | 13 W/m² | - |
| 1777682196 | 18.33° C | 62% | 1017.6 hPa | 0 mm | - | 14 W/m² | - |
| 1777681892 | 18.33° C | 61% | 1017.6 hPa | 0 mm | - | 16 W/m² | - |
| 1777681588 | 18.33° C | 59% | 1017.4 hPa | 0 mm | - | 17 W/m² | - |
| 1777681286 | 18.33° C | 59% | 1017.3 hPa | 0 mm | - | 19 W/m² | - |
| 1777680983 | 18.33° C | 58% | 1017.4 hPa | 0 mm | - | 21 W/m² | - |
| 1777680680 | 18.33° C | 58% | 1017.3 hPa | 0 mm | - | 21 W/m² | - |
| 1777680378 | 18.33° C | 59% | 1017.1 hPa | 0 mm | - | 20 W/m² | - |
| 1777680076 | 18.33° C | 57% | 1017.2 hPa | 0 mm | - | 21 W/m² | - |
| 1777679771 | 18.33° C | 57% | 1017.2 hPa | 0 mm | - | 27 W/m² | - |
| 1777679468 | 18.89° C | 57% | 1017 hPa | 0 mm | - | 33 W/m² | - |
| 1777679163 | 18.89° C | 57% | 1017.2 hPa | 0 mm | - | 37 W/m² | - |
| 1777678861 | 18.89° C | 57% | 1017.1 hPa | 0 mm | - | 44 W/m² | - |
| 1777678559 | 18.89° C | 56% | 1016.9 hPa | 0 mm | - | 48 W/m² | - |
| 1777678256 | 18.89° C | 55% | 1016.6 hPa | 0 mm | - | 61 W/m² | - |
| 1777677952 | 18.89° C | 55% | 1017 hPa | 0 mm | - | 79 W/m² | - |
| 1777677649 | 18.89° C | 57% | 1016.6 hPa | 0 mm | - | 97 W/m² | - |
| 1777677347 | 18.89° C | 56% | 1016.9 hPa | 0 mm | - | 103 W/m² | - |
| 1777677045 | 18.89° C | 54% | 1016.7 hPa | 0 mm | - | 96 W/m² | - |
| 1777676744 | 18.89° C | 56% | 1016.7 hPa | 0 mm | - | 101 W/m² | - |
* Rain latest hour (hover to see other rain measurements)
** Current wind speed in m/s (hover to see current wind gust speed)